Location: Natural Bridges National Monument
(37.6093°N, 109.9767°W)
Time: 13:11:55
(UTC-07:00)

Daily predictions for brighter satellites

Satellite Brightness Start Highest point End
(mag) Time Altitude Azimuth Time Altitude Azimuth Time Altitude Azimuth
Cosmos 1844 4.1 17:50:17 10° N 17:55:46 43° ENE 18:01:14 10° SE
USA 215 3.9 17:49:54 10° E 17:55:47 37° NNE 18:01:40 10° NNW
AQUARIUS 4.2 17:51:50 10° SSE 17:56:20 89° W 18:00:51 10° NNW
Cosmos 1484 Rocket 3.3 17:52:59 10° SE 17:56:35 37° ENE 18:00:16 10° N
Cosmos 1898 Rocket 4.5 17:52:09 10° NNW 17:57:22 55° WSW 18:02:32 10° S
Cosmos 1151 Rocket 3.9 17:53:59 10° NNE 17:57:36 26° ENE 18:01:12 10° SE
SPOT 3 Rocket 3.5 17:53:09 10° SSE 17:58:17 84° ENE 18:03:28 10° NNW
Haruka 4.1 17:56:40 10° SW 17:59:59 34° SSE 18:07:08 10° E
Thor Agena Rocket 3.6 17:55:18 10° NNE 18:00:35 90° ESE 18:05:45 10° SSW
MSX 3.8 17:55:16 10° SSE 18:00:57 75° ENE 18:06:41 10° N
Cosmos 1500 Rocket 3.8 17:56:51 10° SSE 18:00:59 47° E 18:05:09 10° NNE
BREEZE M DEB (TANK) 3.5 18:02:35 10° NNW 18:04:18 14° N 18:05:39 10° NE
COSMOS 2428 3.2 17:58:58 10° SSW 18:04:39 66° WNW 18:10:20 10° NNE
Cosmos 1125 Rocket 4.1 18:00:16 10° N 18:04:57 33° ENE 18:09:36 10° SE
Cosmos 990 Rocket 4.1 18:00:33 10° NNW 18:05:50 84° WSW 18:11:04 10° SSE
Cosmos 1634 Rocket 4.1 17:59:52 10° N 18:05:53 52° E 18:11:51 10° SSE
Cosmos 2237 Rocket 2.6 18:02:49 10° S 18:08:03 41° ESE 18:13:19 10° NE
ALOS 4.0 18:08:10 10° E 18:09:41 11° ENE 18:11:12 10° NE
Cosmos 44 3.9 18:04:51 10° S 18:09:52 44° ESE 18:14:43 10° NE
Cosmos 1300 3.5 18:06:51 10° NNE 18:10:17 30° ENE 18:13:42 10° SE
Cosmos 1726 2.8 18:08:35 10° NNE 18:12:00 33° ENE 18:15:26 10° SE
SL-16 R/B 3.6 18:09:15 10° SE 18:12:59 18° E 18:16:19 11° ENE
Hubble Space Telescope 3.3 18:10:16 10° SW 18:13:04 18° SSW 18:15:52 10° SSE
IDEFIX/ARIANE 42P 3.6 18:09:31 10° S 18:14:34 52° W 18:19:41 10° NNW
Lacrosse 5 rocket 3.0 18:15:46 10° N 18:18:05 15° NE 18:19:24 13° ENE
OTV 4 0.3 18:15:19 10° W 18:18:18 89° ENE 18:20:41 14° E
Cosmos 371 Rocket 3.2 18:13:34 10° SSW 18:18:22 78° ESE 18:23:11 10° NNE
CZ-4 R/B 3.2 18:14:49 10° SSW 18:18:22 34° W 18:21:55 10° NNW
Cosmos 841 Rocket 4.0 18:13:44 10° SSW 18:18:58 66° WNW 18:24:14 10° NNE
NOSS 0 Rocket 3.9 18:18:50 10° SSW 18:25:01 73° ESE 18:31:14 10° NNE
Resurs 01 Rocket 3.2 18:31:55 16° NE 18:31:55 16° NE 18:33:55 10° NNE
Cosmos 2084 3.4 18:27:17 10° SW 18:31:12 70° NW 18:34:44 12° NNE
Abrixas rocket 4.5 18:29:00 10° WNW 18:31:51 27° SW 18:34:42 10° SSE
Meteor 1-11 4.3 18:29:37 10° S 18:35:09 59° E 18:40:47 10° NNE
Meteor 1-28 Rocket 3.0 18:31:45 10° NNE 18:35:27 71° E 18:39:08 10° S
Cosmos 1328 3.9 18:31:35 10° S 18:35:31 79° W 18:39:28 10° N
Aureole 2 Rocket 3.0 18:32:55 10° S 18:36:16 39° ESE 18:38:34 19° NE
CENTAUR R/B 3.8 18:31:51 10° WSW 18:37:29 37° NW 18:43:48 10° NNE
Cosmos 44 Rocket 3.8 18:32:46 10° SW 18:37:52 64° WNW 18:42:54 10° NNE
COSMO-SKYMED 1 2.9 18:35:53 10° N 18:40:12 68° WNW 18:44:31 10° SSW
Lacrosse 5 4.3 18:39:10 10° NNW 18:40:21 11° NNW 18:41:31 10° N
Cosmos 1844 Rocket 3.4 18:36:31 10° NNW 18:42:05 59° WSW 18:47:34 10° S
Cosmos 1707 Rocket 4.4 18:39:52 10° NNE 18:43:32 26° ENE 18:47:10 10° SE
Cosmos 1461 3.9 18:42:50 10° S 18:46:25 27° ESE 18:47:02 26° E
SJ-6B 3.1 18:44:11 10° SSE 18:48:03 46° ENE 18:52:00 10° N
Cosmos 1666 Rocket 4.2 18:48:15 10° SSE 18:52:06 32° E 18:52:39 31° ENE
Cosmos 1980 4.0 18:49:41 10° SSW 18:55:20 70° WNW 19:01:02 10° NNE
Cosmos 2058 2.9 18:51:53 10° S 18:55:59 84° W 19:00:06 10° N
H-2A ROCKET BODY 3.9 18:28:52 10° WSW 18:57:51 49° S 19:02:29 19° ESE
Cosmos 2279 Rocket 3.9 18:51:56 10° N 18:58:11 80° E 19:04:24 10° S
Cosmos 1703 3.1 18:59:18 10° S 19:03:09 64° E 19:04:47 32° NNE
Cosmos 304 Rocket 3.7 18:59:26 10° S 19:04:12 65° ESE 19:06:43 27° NNE
FENGYUN 3A 3.9 19:00:33 10° SE 19:05:34 43° ENE 19:10:38 10° N
Cosmos 2333 Rocket 3.2 19:02:41 10° SW 19:08:05 45° WNW 19:13:30 10° N
Atlas Centaur 2 4.2 19:10:31 10° SW 19:12:31 12° SSW 19:14:22 10° S
Cosmos 2180 Rocket 4.4 19:10:12 10° N 19:16:22 89° W 19:22:35 10° S
Nadezhda 4 Rocket 3.9 19:10:22 10° S 19:16:30 64° E 19:22:44 10° NNE
Cosmos 372 Rocket 4.0 19:11:34 10° NNW 19:16:40 77° WSW 19:21:44 10° S
Meteor 2-10 4.3 19:12:11 10° NNW 19:17:15 69° W 19:22:25 10° S
METEOR-M 4.3 19:12:31 10° S 19:17:51 74° WSW 19:23:13 10° NNW
Cosmos 1340 Rocket 3.4 19:14:17 10° SSW 19:18:11 56° W 19:21:05 17° N
Abrixas 3.6 19:16:37 10° WSW 19:18:50 42° W 19:18:50 42° W
Cosmos 1356 Rocket 3.2 19:16:05 10° S 19:19:50 69° SE 19:19:50 69° SE
Cosmos 2219 Rocket 4.0 19:16:34 10° WSW 19:21:21 28° WNW 19:26:09 10° N
Cosmos 1626 2.3 19:24:03 10° S 19:27:22 67° SW 19:27:22 67° SW
Cosmos 2278 Rocket 2.9 19:23:14 10° NNW 19:28:46 55° WSW 19:34:16 10° S
Cosmos 1805 Rocket 4.2 19:26:41 10° SSW 19:31:03 57° W 19:34:22 17° N
Cosmos 1092 Rocket 3.9 19:27:39 10° S 19:33:52 64° E 19:36:36 35° NNE
USA 215 3.5 19:32:58 15° SE 19:38:28 69° SW 19:45:01 10° NW
Aureole 1 Rocket 4.0 19:38:56 10° S 19:42:14 45° SSE 19:42:14 45° SSE
ALOS 2.4 19:41:51 10° S 19:46:30 70° WSW 19:51:10 10° NNW
Timation 1 Rocket 4.4 19:44:30 10° NNW 19:50:31 74° WSW 19:53:51 28° S
Cosmos 2237 Rocket 4.1 19:47:36 10° WSW 19:52:13 26° WNW 19:56:45 11° N
Spot 2 Rocket 3.7 19:48:34 10° S 19:53:35 68° WSW 19:58:37 10° NNW
Milstar 3 4.3 19:48:12 10° WSW 19:53:44 27° SSW 19:57:25 19° SSE
OTV 4 3.9 19:51:32 10° W 19:51:57 13° W 19:51:57 13° W
Sich 1 3.9 19:50:36 10° SSW 19:54:52 48° W 19:55:02 47° WNW
SL-16 R/B 2.8 19:51:03 10° SW 19:56:34 55° WNW 19:58:16 40° NNW
Lacrosse 5 rocket 3.4 19:53:46 10° NW 19:55:10 22° NW 19:55:10 22° NW
Cosmos 1633 Rocket 4.1 19:53:48 10° SSW 19:57:15 43° WSW 19:57:15 43° WSW
Resurs 01 Rocket 3.6 20:09:28 23° NW 20:09:28 23° NW 20:11:25 10° NNW
Cosmos 2297 4.2 20:02:21 10° NNW 20:07:56 56° WSW 20:09:08 47° SSW
USA 229 DEB 3.8 20:13:28 10° SSW 20:19:18 67° SW 20:19:18 67° SW
USA 229 3.8 20:13:34 10° SSW 20:19:21 66° SW 20:19:21 66° SW
